When you browse on this site, cookies collect data to enhance your experience and personalize the content and advertising you see.
Visit our Privacy Policy to learn more. By continuing to use the site, you agree to this use of cookies and data.
  • en France
  • Liste des pays
  • À 7 jours
  • Température de l'eau
  • Carte météo
  • Widgets météo
  • user-avatar
    Se connecter

    Météo par heure à Hafun

    Ce jour, 26 Mai, Mardi

    Heure Température Précipitation Vent Pression Humidité
    00:00 +34°C° 0 mm 6 m/s 754 mmHg 54%
    01:00 +33°C° 0 mm 7 m/s 753 mmHg 61%
    02:00 +32°C° 0 mm 8 m/s 753 mmHg 69%
    03:00 +32°C° 0 mm 9 m/s 753 mmHg 74%
    04:00 +33°C° 0 mm 9 m/s 753 mmHg 69%
    05:00 +33°C° 0 mm 9 m/s 754 mmHg 63%
    06:00 +34°C° 0 mm 9 m/s 754 mmHg 58%
    07:00 +35°C° 0 mm 9 m/s 754 mmHg 52%
    08:00 +38°C° 0 mm 9 m/s 755 mmHg 45%
    09:00 +40°C° 0 mm 9 m/s 755 mmHg 37%
    10:00 +42°C° 0 mm 9 m/s 754 mmHg 38%
    11:00 +42°C° 0 mm 9 m/s 754 mmHg 38%
    12:00 +42°C° 0 mm 9 m/s 754 mmHg 39%
    13:00 +40°C° 0 mm 10 m/s 753 mmHg 43%
    14:00 +39°C° 0 mm 10 m/s 753 mmHg 48%
    15:00 +37°C° 0 mm 10 m/s 752 mmHg 56%
    16:00 +37°C° 0 mm 8 m/s 752 mmHg 52%
    17:00 +38°C° 0 mm 7 m/s 753 mmHg 48%
    18:00 +37°C° 0 mm 5 m/s 753 mmHg 44%
    19:00 +36°C° 0 mm 6 m/s 754 mmHg 47%
    20:00 +35°C° 0 mm 7 m/s 754 mmHg 51%
    21:00 +35°C° 0 mm 8 m/s 755 mmHg 55%
    22:00 +34°C° 0 mm 7 m/s 755 mmHg 54%
    23:00 +34°C° 0 mm 5 m/s 755 mmHg 53%

    Demain, 27 Mai, Mercredi

    Heure Température Précipitation Vent Pression Humidité
    00:00 +34°C° 0 mm 4 m/s 755 mmHg 51%
    01:00 +33°C° 0 mm 6 m/s 754 mmHg 56%
    02:00 +33°C° 0 mm 8 m/s 754 mmHg 61%
    03:00 +32°C° 0 mm 9 m/s 753 mmHg 65%
    04:00 +32°C° 0 mm 9 m/s 754 mmHg 66%
    05:00 +33°C° 0 mm 9 m/s 754 mmHg 67%
    06:00 +33°C° 0 mm 9 m/s 755 mmHg 68%
    07:00 +35°C° 0 mm 9 m/s 755 mmHg 58%
    08:00 +38°C° 0 mm 9 m/s 755 mmHg 49%
    09:00 +40°C° 0 mm 8 m/s 756 mmHg 40%
    10:00 +40°C° 0 mm 9 m/s 755 mmHg 38%
    11:00 +42°C° 0 mm 9 m/s 754 mmHg 35%
    12:00 +43°C° 0 mm 10 m/s 754 mmHg 33%
    13:00 +42°C° 0 mm 11 m/s 753 mmHg 39%
    14:00 +39°C° 0 mm 11 m/s 753 mmHg 45%
    15:00 +38°C° 0 mm 12 m/s 753 mmHg 51%
    16:00 +36°C° 0.3 mm 10 m/s 753 mmHg 54%
    17:00 +34°C° 0.3 mm 7 m/s 753 mmHg 58%
    18:00 +32°C° 0.3 mm 5 m/s 754 mmHg 61%
    19:00 +30°C° 2.2 mm 6 m/s 754 mmHg 66%
    20:00 +31°C° 2.2 mm 8 m/s 755 mmHg 72%
    21:00 +29°C° 2.2 mm 9 m/s 755 mmHg 77%
    22:00 +31°C° 0.8 mm 8 m/s 755 mmHg 70%
    23:00 +32°C° 0.8 mm 7 m/s 755 mmHg 64%

    Après-demain, 28 Mai, Jeudi

    Heure Température Précipitation Vent Pression Humidité
    00:00 +32°C° 0.8 mm 7 m/s 755 mmHg 58%
    01:00 +32°C° 0 mm 8 m/s 754 mmHg 60%
    02:00 +32°C° 0 mm 9 m/s 754 mmHg 62%
    03:00 +32°C° 0 mm 10 m/s 754 mmHg 64%
    04:00 +32°C° 0 mm 9 m/s 754 mmHg 65%
    05:00 +32°C° 0 mm 9 m/s 755 mmHg 66%
    06:00 +32°C° 0 mm 8 m/s 755 mmHg 67%
    07:00 +34°C° 0 mm 8 m/s 755 mmHg 60%
    08:00 +37°C° 0 mm 9 m/s 755 mmHg 52%
    09:00 +38°C° 0 mm 9 m/s 756 mmHg 45%
    10:00 +40°C° 0 mm 10 m/s 755 mmHg 42%
    11:00 +42°C° 0 mm 10 m/s 754 mmHg 38%
    12:00 +43°C° 0 mm 11 m/s 753 mmHg 35%
    13:00 +42°C° 0 mm 12 m/s 753 mmHg 37%
    14:00 +42°C° 0 mm 12 m/s 752 mmHg 38%
    15:00 +41°C° 0 mm 13 m/s 752 mmHg 40%
    16:00 +39°C° 0.5 mm 11 m/s 752 mmHg 47%
    17:00 +37°C° 0.5 mm 9 m/s 752 mmHg 54%
    18:00 +34°C° 0.5 mm 8 m/s 753 mmHg 61%
    19:00 +34°C° 0.6 mm 8 m/s 753 mmHg 64%
    20:00 +33°C° 0.6 mm 9 m/s 754 mmHg 67%
    21:00 +33°C° 0.6 mm 9 m/s 754 mmHg 70%
    22:00 +33°C° 0 mm 10 m/s 754 mmHg 70%
    23:00 +33°C° 0 mm 10 m/s 754 mmHg 69%

    29 Mai, Vendredi

    Heure Température Précipitation Vent Pression Humidité
    00:00 +33°C° 0 mm 10 m/s 753 mmHg 68%
    01:00 +33°C° 0 mm 11 m/s 753 mmHg 67%
    02:00 +33°C° 0 mm 11 m/s 753 mmHg 66%
    03:00 +33°C° 0 mm 12 m/s 753 mmHg 65%
    04:00 +33°C° 0 mm 11 m/s 753 mmHg 64%
    05:00 +33°C° 0 mm 11 m/s 754 mmHg 62%
    06:00 +33°C° 0 mm 10 m/s 754 mmHg 61%
    07:00 +36°C° 0 mm 10 m/s 754 mmHg 55%
    08:00 +37°C° 0 mm 11 m/s 754 mmHg 49%
    09:00 +39°C° 0 mm 11 m/s 754 mmHg 43%
    10:00 +41°C° 0 mm 12 m/s 753 mmHg 40%
    11:00 +42°C° 0 mm 12 m/s 753 mmHg 38%
    12:00 +43°C° 0 mm 13 m/s 752 mmHg 35%
    13:00 +42°C° 0 mm 13 m/s 751 mmHg 37%
    14:00 +42°C° 0 mm 14 m/s 751 mmHg 38%
    15:00 +42°C° 0 mm 14 m/s 750 mmHg 40%
    16:00 +40°C° 0 mm 14 m/s 751 mmHg 47%
    17:00 +37°C° 0 mm 14 m/s 751 mmHg 53%
    18:00 +34°C° 0 mm 14 m/s 751 mmHg 60%
    19:00 +34°C° 0.5 mm 13 m/s 752 mmHg 62%
    20:00 +34°C° 0.5 mm 13 m/s 752 mmHg 65%
    21:00 +33°C° 0.5 mm 13 m/s 752 mmHg 67%
    22:00 +33°C° 0 mm 14 m/s 752 mmHg 67%
    23:00 +33°C° 0 mm 15 m/s 752 mmHg 68%

    30 Mai, Samedi

    Heure Température Précipitation Vent Pression Humidité
    00:00 +33°C° 0 mm 16 m/s 751 mmHg 68%
    01:00 +33°C° 0 mm 15 m/s 751 mmHg 65%
    02:00 +33°C° 0 mm 15 m/s 751 mmHg 63%
    03:00 +34°C° 0 mm 14 m/s 751 mmHg 60%
    04:00 +34°C° 0 mm 14 m/s 751 mmHg 58%
    05:00 +34°C° 0 mm 13 m/s 752 mmHg 56%
    06:00 +34°C° 0 mm 13 m/s 752 mmHg 54%
    07:00 +37°C° 0 mm 13 m/s 752 mmHg 48%
    08:00 +38°C° 0 mm 13 m/s 753 mmHg 43%
    09:00 +41°C° 0 mm 13 m/s 753 mmHg 37%
    10:00 +41°C° 0 mm 13 m/s 752 mmHg 36%
    11:00 +42°C° 0 mm 13 m/s 752 mmHg 35%
    12:00 +43°C° 0 mm 13 m/s 752 mmHg 34%
    13:00 +43°C° 0 mm 13 m/s 751 mmHg 35%
    14:00 +42°C° 0 mm 14 m/s 751 mmHg 37%
    15:00 +42°C° 0 mm 14 m/s 751 mmHg 38%
    16:00 +41°C° 0 mm 15 m/s 751 mmHg 42%
    17:00 +38°C° 0 mm 15 m/s 751 mmHg 46%
    18:00 +37°C° 0 mm 15 m/s 751 mmHg 50%
    19:00 +37°C° 0 mm 15 m/s 752 mmHg 53%
    20:00 +36°C° 0 mm 14 m/s 753 mmHg 56%
    21:00 +34°C° 0 mm 13 m/s 753 mmHg 59%
    22:00 +34°C° 0 mm 13 m/s 753 mmHg 60%
    23:00 +34°C° 0 mm 13 m/s 753 mmHg 61%

    31 Mai, Dimanche

    Heure Température Précipitation Vent Pression Humidité
    00:00 +33°C° 0 mm 13 m/s 752 mmHg 62%
    01:00 +33°C° 0 mm 13 m/s 752 mmHg 59%
    02:00 +33°C° 0 mm 13 m/s 752 mmHg 56%
    03:00 +33°C° 0 mm 14 m/s 752 mmHg 53%
    04:00 +34°C° 0 mm 13 m/s 753 mmHg 51%
    05:00 +34°C° 0 mm 13 m/s 753 mmHg 48%
    06:00 +34°C° 0 mm 12 m/s 754 mmHg 46%
    07:00 +36°C° 0 mm 11 m/s 754 mmHg 42%
    08:00 +38°C° 0 mm 11 m/s 754 mmHg 39%
    09:00 +39°C° 0 mm 10 m/s 755 mmHg 35%
    10:00 +41°C° 0 mm 11 m/s 754 mmHg 33%
    11:00 +42°C° 0 mm 11 m/s 753 mmHg 32%
    12:00 +43°C° 0 mm 11 m/s 753 mmHg 30%
    13:00 +43°C° 0 mm 12 m/s 752 mmHg 32%
    14:00 +43°C° 0 mm 13 m/s 752 mmHg 33%
    15:00 +43°C° 0 mm 13 m/s 751 mmHg 35%
    16:00 +42°C° 0 mm 14 m/s 751 mmHg 37%
    17:00 +41°C° 0 mm 14 m/s 752 mmHg 39%
    18:00 +40°C° 0 mm 14 m/s 752 mmHg 41%
    19:00 +38°C° 0 mm 14 m/s 752 mmHg 44%
    20:00 +38°C° 0 mm 14 m/s 753 mmHg 47%
    21:00 +37°C° 0 mm 14 m/s 753 mmHg 50%
    22:00 +36°C° 0 mm 14 m/s 753 mmHg 52%
    23:00 +36°C° 0 mm 14 m/s 753 mmHg 53%
    Voir plus